Torna al catalogo

COSMOS 1348 DEB

LostHEO
NORAD 32773·DEBRIS·🇷🇺 Russia

Lanciato Apr 7, 1982 da Plesetsk Cosmodrome

Loading…

Prossimi Passaggi (prossime 24 ore)

TLE

ObsoletoSource: Space-Track

Epoca: Jul 2, 2013, 17:27 UTC

1 32773U 82029G   13183.72732008 -.00000112  00000-0  00000+0 0  9992
2 32773  71.5868 291.7842 4952360 115.3653   9.3170  2.03131759 54623

Traccia COSMOS 1348 DEB in tempo reale con AllMySat

Download on the App Store